Terminal Aerodrome Forecast
Issued by NWS

Home | Current Version | Previous Version | Text Only | Print | Product List | Glossary On
Versions: 1 2 3 4 5 6 7 8 9 10 11 12 13 14
000
FTAK31 PAJN 030520
TAFAGY
TAF
PAGY 030520Z 0306/0406 VRB03KT P6SM -SHRA SCT050 OVC080
     FM030900 04005KT P6SM VCSH SCT040 BKN060 OVC120
     FM031800 04010KT P6SM SCT060 SCT100
     FM040000 03012G18KT P6SM SCT100
      AMD LTD TO CLD VIS AND WIND=

USA.gov is the U.S. government's official web portal to all federal, state and local government web resources and services.